GFSSE_sfc_wetblb_273.txt.gz
Wetbulb
73.96 75.43 76.07 75.08 75.20 75.32 75.24 75.17 75.05 74.81 74.68 74.47 74.76 74.72 74.74 74.41 74.02 73.88 73.79 73.68 73.40 73.13 73.03 72.98 72.79 72.78 72.70 72.65 72.37 72.17 72.17 72.12 72.15 72.57 73.45 74.08 71.18 70.94 72.05 72.76 72.66 73.89 75.40
74.30 75.86 76.13 75.74 75.54 75.41 75.14 75.04 75.06 74.61 74.35 74.33 74.05 74.03 73.95 74.05 73.96 74.06 73.98 74.10 74.15 74.04 73.99 73.85 73.85 73.79 73.74 73.61 73.38 73.10 72.67 72.34 72.51 72.58 72.73 73.61 74.66 72.11 73.47 73.58 74.08 74.47 73.85
73.68 75.32 75.25 76.27 76.16 75.55 75.23 75.01 74.39 74.14 74.04 74.04 74.04 73.86 73.63 73.06 72.66 72.56 72.51 72.84 73.05 73.17 73.15 73.21 73.29 73.40 73.50 73.41 73.81 73.81 73.79 73.34 72.89 72.77 73.15 71.83 73.71 73.90 72.96 73.31 73.62 73.94 71.99
73.50 75.80 75.35 75.37 75.44 75.06 74.66 74.06 74.29 74.34 73.94 73.43 72.73 72.48 72.28 72.54 72.91 73.22 73.64 73.86 73.77 73.82 73.88 74.01 74.11 74.03 74.02 73.90 73.84 73.78 73.79 73.76 73.61 73.35 71.54 70.86 70.54 75.85 74.84 74.33 73.77 73.84 73.41
73.59 74.76 76.02 75.43 74.84 74.27 74.64 74.48 73.97 73.63 73.22 73.29 73.63 73.68 73.74 74.22 74.33 74.22 74.19 74.20 74.33 74.05 73.90 73.37 73.01 72.96 72.92 73.00 73.04 73.38 73.74 74.27 74.11 73.78 72.31 71.94 72.18 73.46 72.87 72.71 73.67 75.05 75.17
73.11 74.74 74.89 74.62 74.89 74.70 74.18 73.72 74.38 74.55 74.50 74.51 74.48 74.28 73.78 73.66 73.83 74.01 73.86 73.44 73.34 73.46 73.48 73.91 72.89 71.99 72.87 73.44 73.16 73.22 73.24 73.16 73.56 73.39 73.29 74.33 73.22 73.94 73.01 72.32 73.15 74.00 74.71
73.01 73.52 73.48 75.23 74.52 74.18 74.00 74.03 73.66 73.29 72.94 72.37 72.45 72.02 71.88 72.20 71.68 71.41 70.94 70.86 70.85 70.92 71.04 70.94 70.86 70.46 69.92 71.10 71.64 71.38 71.90 73.11 73.85 72.95 72.60 73.74 73.48 73.86 72.89 72.39 73.68 74.77 75.51
72.20 73.68 74.28 74.09 74.50 74.28 73.63 72.97 72.08 71.14 70.40 69.81 69.71 69.71 69.86 70.15 69.41 69.27 69.10 69.10 68.65 68.59 68.89 68.95 68.93 68.73 68.55 68.43 68.89 69.38 69.51 69.80 70.74 72.09 72.74 72.36 73.60 73.80 73.02 73.44 75.28 75.93 76.51
72.04 72.43 72.62 73.96 74.41 73.81 72.57 71.58 70.38 68.93 67.82 67.01 66.90 67.27 67.74 68.04 68.05 67.83 67.40 67.12 67.37 67.05 67.21 67.17 67.11 67.15 67.23 67.37 67.26 67.60 68.35 69.34 69.56 70.75 70.58 72.82 74.00 73.36 73.43 73.18 73.93 75.19 76.31
71.41 71.76 72.43 72.76 73.19 72.58 72.68 69.44 68.27 67.15 66.34 65.67 65.02 64.08 63.55 66.81 67.56 66.84 67.13 64.84 64.88 65.11 65.45 65.62 65.76 65.90 66.27 67.00 67.66 67.38 67.52 68.71 69.83 70.74 70.17 74.48 74.10 73.45 73.29 71.83 72.79 73.41 74.93
70.67 72.25 73.19 73.71 73.51 72.61 72.68 70.24 68.35 67.50 66.78 67.08 66.85 64.66 67.88 65.51 64.94 65.44 63.13 62.68 63.11 63.62 64.39 64.02 64.15 64.97 65.68 67.34 68.81 68.39 68.12 68.40 69.75 69.78 69.85 73.75 72.97 72.29 72.30 71.58 71.19 71.70 72.93
70.21 72.04 73.04 73.28 74.22 72.87 72.36 72.72 71.89 70.44 69.10 67.57 66.41 66.39 65.57 65.99 65.37 64.06 65.79 62.61 64.23 62.77 66.25 64.17 65.14 66.89 67.35 64.41 64.07 68.50 67.04 66.39 67.62 68.60 69.00 72.03 71.80 71.42 71.92 72.75 71.61 71.20 71.89
71.08 72.10 73.51 74.41 75.42 72.86 71.92 73.26 71.81 70.41 69.18 67.08 65.93 65.92 66.26 65.19 65.01 64.19 63.73 63.61 63.99 66.34 63.75 64.63 64.33 63.82 64.07 63.79 63.34 63.44 63.22 63.01 63.47 65.23 68.62 68.60 67.71 67.40 69.58 72.54 72.53 71.07 72.08
71.49 72.34 74.31 73.96 74.18 74.11 72.55 71.86 71.40 69.00 68.04 65.91 65.16 65.37 64.78 63.78 63.87 63.65 63.43 63.71 63.93 63.54 63.60 63.42 63.18 64.06 63.48 63.22 62.93 62.61 62.67 62.67 62.68 63.28 67.34 67.67 65.82 65.23 66.86 69.92 71.99 71.65 71.80
71.43 72.38 73.65 74.25 73.92 73.15 71.35 69.70 69.95 68.96 66.65 65.40 64.87 64.76 64.10 63.39 63.20 63.57 63.71 63.28 63.26 63.42 62.81 62.85 63.10 62.50 62.58 63.46 63.63 63.95 63.64 63.36 63.12 63.19 63.71 67.76 66.67 65.63 66.36 68.78 71.17 71.58 71.25
72.28 72.68 73.48 73.06 73.70 71.97 70.23 69.90 68.44 67.40 66.12 65.19 64.62 64.16 63.99 63.32 63.65 63.22 63.02 62.28 62.41 62.39 62.07 62.27 61.86 62.02 62.40 62.89 62.87 63.47 64.27 64.61 65.23 66.02 66.46 66.69 67.96 68.06 67.80 67.36 69.76 70.25 70.17
72.63 72.80 72.72 71.83 70.77 70.06 69.95 68.54 68.02 66.26 65.19 64.27 63.95 64.18 63.30 63.67 64.15 63.95 62.01 61.78 61.54 61.99 62.84 62.80 62.15 62.77 62.05 62.23 62.67 62.76 63.75 63.98 64.70 65.55 66.23 66.51 68.18 67.02 66.82 67.46 67.21 67.47 67.61
72.10 70.14 69.70 69.83 69.26 69.09 68.37 67.84 66.38 65.30 64.52 64.03 63.81 62.87 63.15 63.14 63.52 63.17 61.63 60.86 61.36 61.08 61.17 61.06 61.43 60.68 60.60 60.91 60.93 62.10 61.71 62.92 64.20 64.65 65.37 66.51 67.33 67.62 66.38 66.33 66.94 67.07 67.36
69.23 69.24 67.06 67.30 66.30 67.67 67.61 66.92 66.04 65.34 64.55 64.29 63.10 62.18 62.84 62.71 62.71 62.54 60.80 60.29 60.89 60.21 60.86 60.39 60.62 60.76 60.27 59.80 59.21 60.03 61.71 62.26 62.54 63.36 63.73 64.02 63.87 64.69 62.97 63.55 63.24 63.50 63.95
69.29 67.56 66.46 66.81 66.92 67.36 66.56 65.66 64.11 63.61 63.63 63.56 61.92 62.10 62.50 62.30 61.91 62.10 60.18 59.78 59.76 59.42 59.51 60.06 60.15 60.46 60.17 60.15 59.71 58.50 59.86 61.06 61.84 62.01 62.33 63.01 61.93 61.44 62.55 61.38 60.29 59.71 61.25
67.65 66.94 66.22 65.55 66.46 66.14 64.43 62.69 62.39 62.15 62.45 61.43 61.81 61.93 62.00 61.57 61.37 61.40 58.96 58.75 59.58 58.17 58.74 59.46 59.64 59.00 57.77 59.64 57.98 58.72 60.23 59.45 60.82 60.74 61.38 61.57 61.11 61.24 60.78 59.32 60.21 59.99 59.01
67.91 66.23 66.07 66.00 65.80 65.26 64.13 64.74 64.43 62.95 61.63 61.02 61.53 61.43 61.18 60.48 60.69 59.81 59.50 58.33 59.20 57.71 57.92 57.87 58.00 56.90 57.30 58.01 55.21 55.98 53.34 55.62 57.41 58.57 59.67 59.84 59.46 59.18 58.38 58.79 58.88 59.27 60.00
65.64 65.55 65.75 66.06 65.30 65.25 65.78 63.59 62.76 61.67 60.57 60.41 60.53 59.86 59.51 59.21 59.72 59.61 59.05 58.98 58.73 59.02 56.16 57.21 57.43 56.73 54.27 56.02 57.06 53.83 51.51 50.36 52.74 56.72 57.78 58.16 59.30 58.17 58.43 57.90 57.88 58.11 58.67
66.02 65.84 66.28 65.77 65.14 64.71 64.89 63.26 63.04 60.81 59.44 60.12 60.19 59.64 58.96 58.95 58.61 58.74 59.07 58.69 58.69 57.29 57.43 56.74 56.51 57.22 56.14 52.63 53.87 54.12 54.87 53.48 48.68 49.60 55.00 55.55 57.71 56.73 57.19 56.58 56.52 57.45 57.41
65.85 64.78 65.40 64.67 64.37 64.50 63.65 64.02 61.79 61.50 60.48 60.00 59.59 59.83 59.29 58.82 58.14 57.68 58.49 58.77 58.45 57.41 57.65 57.31 56.73 56.39 54.77 53.13 50.73 50.73 52.60 51.04 52.15 48.87 47.51 49.13 52.05 54.65 53.69 54.33 54.33 54.34 55.44
65.82 64.15 63.17 63.06 63.31 63.57 63.05 62.81 62.60 61.43 60.74 59.24 59.07 57.95 57.73 57.65 57.87 58.64 58.40 58.86 58.54 58.74 57.29 56.97 57.45 56.52 55.27 53.74 52.88 52.96 50.68 49.30 49.01 49.01 47.82 49.14 48.53 50.70 51.76 52.57 52.93 52.81 53.66

GFSSE_sfc_wetblb_276.txt.gz
Wetbulb
71.95 73.47 76.07 75.91 76.16 75.55 75.39 75.14 74.95 74.76 74.70 74.63 74.69 74.46 74.33 74.18 74.13 74.05 74.12 74.32 74.64 74.07 73.85 73.64 73.59 73.44 73.39 73.18 73.12 73.07 72.98 72.85 72.75 72.94 73.22 74.37 74.68 71.15 71.92 73.17 74.27 73.53 76.21
73.02 72.87 76.13 76.07 76.19 75.42 75.29 75.19 75.00 74.61 74.33 74.18 74.16 74.16 74.06 73.93 73.57 73.29 73.18 73.44 73.70 73.49 73.61 73.65 73.75 73.80 73.79 73.84 73.78 73.78 73.71 73.37 73.14 72.92 73.09 73.08 74.53 73.72 73.57 73.63 73.95 73.40 74.13
72.61 72.60 73.83 76.38 76.37 76.06 75.41 74.88 74.39 74.16 74.11 74.11 73.91 73.45 72.67 72.65 72.82 73.23 73.72 74.11 74.24 74.24 74.30 74.50 74.43 74.31 74.07 73.74 73.49 73.66 73.74 73.82 73.87 73.53 73.58 71.23 69.43 75.59 74.67 74.43 73.96 74.10 72.27
73.60 74.40 74.08 76.43 76.00 75.22 74.54 74.21 74.57 74.42 73.76 73.11 72.78 72.84 73.16 73.45 73.83 74.00 74.07 74.15 74.34 74.24 74.03 73.51 73.45 73.52 73.53 73.41 73.67 73.77 74.06 74.24 74.19 74.34 72.13 69.61 69.06 76.14 75.11 74.81 73.90 73.54 73.54
74.75 75.01 74.41 76.03 75.35 74.32 74.77 74.22 73.87 73.51 73.45 74.03 74.14 74.42 74.63 74.45 74.66 74.68 74.53 74.02 73.80 73.62 73.75 74.06 73.58 73.11 73.29 73.58 73.38 73.49 73.39 73.36 73.60 73.71 71.94 71.08 71.99 75.39 76.17 75.60 74.96 75.08 75.43
73.06 74.35 75.01 75.23 75.45 74.65 73.89 74.02 74.22 74.68 74.56 74.18 73.68 73.39 73.21 73.06 72.35 72.35 72.02 71.89 71.84 71.95 71.90 71.83 71.73 71.11 70.74 72.10 73.35 73.15 73.15 73.70 74.04 71.45 70.44 71.99 71.06 74.68 74.67 74.30 73.13 73.83 75.22
72.43 72.87 72.85 75.63 74.95 74.57 74.45 74.06 73.58 72.99 72.25 72.05 72.00 71.83 71.58 71.09 70.72 70.49 70.30 70.03 69.80 69.96 70.13 70.22 69.96 69.81 69.56 69.44 70.24 70.61 70.76 71.03 69.57 69.44 71.06 71.49 71.22 74.00 74.98 74.23 73.85 74.24 75.13
70.63 71.77 73.12 74.57 74.91 74.61 73.66 72.52 71.63 70.79 70.18 69.83 69.63 69.67 69.92 69.38 69.15 68.85 68.35 68.29 68.19 67.94 68.32 68.35 68.39 68.37 68.51 68.52 68.69 69.05 69.61 70.04 69.10 68.31 68.97 72.14 73.29 73.28 74.34 74.44 74.57 75.06 75.61
72.05 71.91 71.58 72.60 73.35 73.16 72.02 71.11 69.76 68.55 67.48 66.90 66.96 67.58 67.76 68.40 68.07 67.91 65.95 65.02 65.48 65.34 65.83 66.20 66.36 66.57 67.09 67.80 68.45 69.18 69.09 69.50 67.48 67.60 69.21 72.24 72.88 73.13 73.48 73.79 74.21 74.83 75.50
70.78 70.53 71.37 71.93 71.83 71.33 69.79 69.75 68.80 67.86 67.08 66.92 66.54 64.24 65.86 67.80 68.08 66.94 67.61 64.23 63.78 64.44 64.68 65.00 65.76 66.05 66.37 66.96 68.46 69.25 69.55 69.79 66.75 67.12 68.61 72.31 72.79 73.57 73.11 73.02 73.18 73.99 75.02
69.79 70.86 71.47 71.26 72.15 71.11 69.76 68.82 68.61 68.19 67.81 67.44 67.41 69.56 69.63 66.50 65.31 64.84 63.57 62.97 63.22 64.85 65.76 65.82 66.19 68.08 68.63 68.53 70.25 70.84 69.86 66.91 66.15 66.51 69.15 74.26 74.68 73.68 73.21 72.43 71.71 72.26 74.63
68.84 70.19 72.23 73.14 72.05 71.39 70.75 69.25 70.69 69.73 68.06 67.46 66.80 68.26 65.31 67.48 65.53 65.88 66.72 68.05 65.92 67.44 68.36 67.80 68.86 68.84 66.87 62.47 62.27 66.00 64.94 62.29 61.35 61.69 66.93 73.11 72.41 72.16 72.07 72.50 72.45 72.67 73.66
71.44 71.99 73.19 74.03 73.29 71.49 71.51 71.51 71.06 69.82 69.51 66.34 66.26 66.08 66.60 66.83 65.37 63.93 63.78 63.76 64.26 66.13 62.67 63.80 63.87 62.83 63.07 62.12 61.85 61.83 62.01 61.20 61.17 61.47 67.87 70.15 69.30 67.89 67.63 69.77 71.54 72.63 72.59
71.21 72.97 73.53 73.96 74.31 74.84 72.74 72.90 70.96 68.86 69.17 65.93 65.40 65.33 64.40 64.17 64.00 65.61 63.92 64.57 63.72 63.35 63.10 62.47 62.04 63.54 62.62 63.36 62.37 62.06 62.63 62.27 61.70 61.20 64.12 69.38 68.81 67.55 67.60 67.90 69.52 70.71 71.44
70.59 72.86 73.61 74.83 74.60 74.00 73.78 72.41 71.42 68.89 66.64 66.51 64.76 64.51 64.11 64.38 64.18 65.79 65.26 64.18 63.70 63.13 61.83 62.07 61.79 62.25 62.39 62.49 62.52 62.15 62.04 62.65 63.39 64.28 64.55 69.53 69.23 68.40 68.57 68.38 68.07 70.13 69.85
70.98 72.98 73.26 73.04 73.48 72.68 72.44 71.91 69.88 69.15 67.70 66.16 64.68 64.58 64.22 64.09 65.15 63.78 63.69 62.64 62.07 62.95 62.28 62.70 61.17 62.48 62.05 61.74 61.08 61.89 62.17 62.95 63.79 64.50 64.68 65.64 67.83 67.38 68.25 68.34 68.58 68.76 68.45
71.75 73.07 73.14 71.26 70.26 71.06 71.59 71.25 69.38 68.42 65.99 65.38 64.74 64.33 64.32 64.95 64.27 64.79 62.78 60.93 61.33 62.57 63.24 62.72 62.88 61.89 61.27 60.90 61.19 61.30 61.99 62.84 63.21 63.46 63.50 64.35 64.38 66.40 66.99 67.61 68.29 68.20 68.22
72.72 70.46 70.42 70.47 69.99 70.47 69.61 69.34 67.73 67.40 66.49 65.10 65.16 63.15 64.22 64.16 64.08 63.76 60.99 60.43 60.32 62.55 61.91 61.18 61.62 59.62 60.13 60.16 59.55 60.47 61.18 61.23 62.50 62.54 62.84 63.26 62.82 62.46 63.37 64.26 65.08 65.90 65.37
70.77 70.08 70.00 69.77 68.72 67.37 67.06 68.67 66.27 67.07 66.81 65.17 63.86 63.18 64.03 63.68 63.11 64.25 60.54 60.48 62.07 60.39 59.67 60.11 59.82 60.43 59.33 59.40 59.49 59.11 60.43 60.99 60.90 61.90 61.21 60.91 61.59 61.38 61.02 62.71 62.88 63.12 63.50
70.38 69.59 69.04 67.57 68.17 68.22 66.10 67.11 65.31 65.48 65.41 63.67 63.20 62.85 63.40 63.22 62.46 62.48 60.20 61.05 59.53 58.39 58.38 59.05 59.81 59.74 59.31 58.51 58.25 58.60 58.81 60.17 60.11 60.20 60.22 60.90 59.58 60.03 59.55 58.86 59.17 59.60 61.04
69.30 68.50 67.54 67.66 67.69 66.72 64.37 62.81 63.03 62.60 63.58 62.08 62.11 63.27 62.59 61.67 62.22 61.30 59.69 59.38 60.39 57.62 58.31 57.71 57.34 56.89 57.70 57.69 56.57 56.56 58.29 60.32 60.24 59.39 59.27 58.41 58.12 58.03 58.14 58.84 58.08 57.96 58.22
66.53 66.88 67.13 66.70 67.06 67.18 65.61 67.84 66.29 64.69 63.23 61.93 61.73 62.48 62.03 61.30 60.86 59.32 60.19 58.86 59.31 57.88 57.42 57.82 57.32 54.51 56.72 57.31 53.45 53.01 52.39 55.33 56.70 57.33 58.47 57.93 57.84 57.36 56.34 56.82 56.95 57.43 57.91
66.09 66.67 66.19 66.64 66.14 66.22 66.92 64.35 63.82 62.62 62.11 61.12 60.54 60.11 60.08 60.48 59.97 60.78 60.08 59.54 60.02 57.08 56.81 56.89 55.96 56.20 52.44 54.63 56.15 51.48 48.12 46.14 48.01 56.77 57.46 56.58 56.14 55.81 56.45 56.72 56.99 56.90 56.49
66.88 66.51 66.65 66.06 65.82 66.13 65.88 63.68 62.41 59.28 59.18 61.41 60.20 59.81 59.52 60.25 59.40 59.58 60.01 59.57 59.92 56.92 57.13 55.87 56.02 55.29 53.18 50.65 51.81 53.63 53.08 50.92 44.73 45.31 53.34 54.91 56.01 55.68 54.95 53.34 52.42 54.04 54.58
67.00 66.19 66.45 65.71 64.82 64.03 64.73 64.21 62.90 65.60 61.58 62.36 59.55 60.37 59.87 60.12 59.46 58.49 59.55 59.49 59.13 57.67 58.25 56.90 56.33 55.50 53.19 52.02 50.20 50.14 50.37 50.36 50.31 47.39 44.19 46.75 49.56 51.07 51.42 51.60 50.63 50.96 52.45
66.91 66.27 65.52 64.73 63.73 63.54 63.44 65.28 64.51 64.16 62.10 59.48 58.65 57.80 57.52 57.46 58.62 59.22 59.03 59.41 59.09 58.17 57.93 56.94 57.70 55.95 54.93 53.71 53.03 52.79 50.00 47.86 47.07 47.05 45.83 46.35 46.62 49.54 49.76 50.74 50.55 50.78 51.68

GFSSE_sfc_wetblb_279.txt.gz
Wetbulb
71.02 73.95 76.57 76.47 76.24 76.19 75.40 75.05 74.81 74.73 74.71 74.46 74.31 74.19 74.21 74.17 74.21 74.11 74.03 74.28 75.01 74.52 73.97 74.04 74.03 74.12 74.17 73.93 73.89 73.98 74.01 73.71 73.53 73.40 73.30 73.46 74.46 74.25 73.92 74.71 76.02 73.68 75.97
72.28 74.07 76.37 76.47 76.32 75.96 75.30 75.08 74.59 74.46 74.39 74.29 74.26 73.96 73.25 73.45 72.96 73.42 73.85 74.68 74.90 74.40 74.40 74.30 74.13 73.96 73.82 73.83 73.74 73.72 73.83 73.87 73.93 73.69 73.59 73.50 73.29 75.35 73.64 73.91 75.16 72.67 75.41
72.11 73.67 74.86 76.25 76.42 75.46 74.84 74.54 74.24 74.47 74.04 73.56 72.89 72.72 73.15 73.71 74.03 74.26 75.09 75.04 75.05 74.29 74.10 73.83 73.84 73.75 73.68 73.71 73.85 73.94 74.15 74.26 74.31 74.40 74.38 71.51 70.64 73.24 74.12 74.25 74.61 74.17 74.05
70.90 72.48 74.41 76.45 75.95 74.75 74.28 74.57 74.57 73.74 73.28 73.61 73.61 73.91 74.54 74.64 74.84 74.79 74.64 74.44 74.11 73.84 74.38 74.52 73.71 73.45 73.56 73.83 73.63 73.58 73.61 73.61 73.58 73.81 72.58 72.30 71.22 74.37 75.62 75.58 75.01 75.42 74.27
71.97 73.38 74.07 75.70 75.12 74.56 74.39 73.79 74.10 74.14 74.22 74.57 74.82 74.32 74.15 73.80 73.28 72.98 72.83 72.73 72.62 72.49 72.44 72.48 72.47 71.82 71.43 72.16 73.37 73.45 73.45 73.49 73.91 73.67 69.96 69.72 69.75 75.24 75.82 75.69 75.41 75.22 75.08
72.53 73.40 74.70 75.60 75.40 74.29 73.55 73.61 74.85 74.80 74.12 73.87 73.38 73.12 72.58 72.29 71.77 71.45 71.12 70.78 70.87 70.93 70.93 71.13 70.89 70.59 70.57 70.58 70.79 71.29 71.52 71.73 72.39 67.78 68.50 69.42 70.18 74.97 75.91 76.01 75.65 75.64 75.02
71.32 72.25 73.62 75.27 75.00 74.84 74.69 74.15 73.47 72.80 72.33 72.24 72.14 71.72 71.25 70.80 70.38 69.84 69.64 69.59 69.40 69.36 69.56 69.53 69.29 69.24 69.26 69.36 69.71 69.99 70.16 70.68 68.46 65.99 66.51 69.12 70.02 73.89 74.34 73.42 73.49 74.59 75.07
70.06 72.53 72.65 74.69 74.94 74.17 73.20 72.75 71.96 71.13 70.56 70.26 69.95 70.00 69.72 69.45 69.22 68.10 66.49 66.09 66.08 66.19 66.58 66.79 66.59 66.80 67.24 67.60 68.49 69.36 69.95 70.54 68.36 65.70 65.70 69.36 72.97 73.30 72.45 68.63 71.58 73.17 74.72
71.05 70.90 71.39 72.25 72.41 72.63 72.04 71.15 70.11 69.11 68.29 68.08 68.56 68.52 68.74 68.49 68.41 66.81 64.87 65.01 64.82 65.09 65.19 65.80 66.51 66.83 67.20 67.57 67.70 68.87 69.12 70.23 67.05 65.68 65.91 69.19 73.72 72.95 68.22 70.37 74.02 74.66 74.80
70.11 70.23 70.76 70.58 69.98 68.98 68.67 70.22 69.03 68.12 67.71 68.05 67.73 66.84 67.67 67.85 67.17 66.06 68.18 64.95 64.61 65.83 65.80 66.52 67.31 68.29 69.21 69.83 70.02 70.57 70.92 70.14 65.32 63.75 64.64 69.43 72.90 72.70 73.47 72.77 73.08 74.50 74.68
68.58 69.43 70.01 69.71 68.92 67.37 66.98 68.04 69.22 68.97 68.03 67.91 66.91 69.23 66.44 61.58 60.37 61.69 65.99 64.72 65.30 66.84 68.81 68.13 69.24 69.23 68.47 66.26 68.02 68.94 69.26 65.33 63.85 59.12 65.64 72.53 71.42 71.61 70.63 70.61 72.09 73.48 73.05
66.84 68.25 69.15 69.53 68.44 66.80 68.11 66.38 64.58 66.26 63.86 62.02 61.78 61.87 60.47 59.90 61.29 63.66 64.36 67.97 67.92 67.91 68.07 67.90 68.06 67.34 64.37 58.83 58.36 62.90 57.95 57.55 58.00 58.03 67.93 71.21 71.16 70.51 70.51 70.46 70.29 71.65 72.44
67.69 67.92 69.26 69.39 68.68 67.59 67.10 65.89 66.47 63.90 62.76 61.27 60.81 60.32 59.85 60.27 59.50 59.83 58.85 59.69 58.90 62.93 59.05 60.09 59.04 58.98 58.50 58.34 58.71 58.66 60.98 60.31 61.33 61.41 65.60 69.51 69.58 69.68 69.29 68.67 70.33 71.48 70.42
68.22 69.18 70.19 69.65 69.02 67.96 68.34 68.30 65.01 64.18 62.01 60.55 60.01 59.97 58.43 59.02 58.73 60.07 58.66 58.84 57.84 56.65 56.72 57.37 56.73 57.93 58.49 59.26 59.99 60.16 59.17 61.48 62.80 63.13 64.56 68.63 68.41 68.99 69.02 68.85 68.47 69.02 70.22
69.21 69.75 70.08 70.59 69.44 68.48 66.83 66.63 63.52 61.68 61.23 60.63 59.82 59.61 59.05 59.09 58.50 59.18 57.38 57.29 56.30 56.24 55.68 56.30 55.89 57.49 57.77 57.83 58.71 59.29 60.76 61.82 62.16 62.83 64.20 68.11 67.91 68.21 68.97 69.74 69.81 69.38 69.25
69.75 70.39 70.82 70.30 69.13 68.70 66.82 64.40 62.65 60.78 61.37 60.19 59.16 59.14 59.47 58.39 58.40 58.58 56.11 55.59 55.36 55.94 56.99 57.27 56.85 56.01 56.55 57.01 58.16 58.88 61.36 61.26 61.66 62.12 62.47 62.97 66.62 66.97 67.63 68.06 68.91 69.46 68.69
69.70 70.59 68.93 68.61 67.81 66.76 65.65 65.08 61.97 62.13 61.24 59.95 58.74 59.22 59.22 58.43 57.64 56.54 54.53 53.83 53.92 55.38 56.76 56.14 56.61 56.28 55.76 56.20 56.14 57.33 59.08 60.11 61.02 61.55 61.14 60.83 61.39 64.79 65.84 66.31 66.09 66.25 65.97
69.70 68.24 68.53 69.28 68.41 66.78 65.31 64.55 62.44 61.41 59.31 59.91 59.03 58.29 58.77 58.39 58.18 54.88 54.33 52.79 55.69 56.15 55.42 55.24 55.26 54.48 55.16 55.83 54.07 55.48 57.78 57.59 58.86 59.16 60.59 60.55 60.02 60.40 62.99 64.15 64.41 64.74 64.69
68.45 67.75 66.99 67.22 66.05 64.62 64.13 61.77 60.46 60.76 59.30 58.80 58.41 57.75 57.98 58.33 58.56 54.11 53.39 54.25 53.95 54.07 53.75 54.20 54.40 53.38 53.12 53.06 56.40 54.15 54.75 55.66 57.92 59.02 57.80 58.33 59.00 58.25 58.46 62.46 62.54 62.51 63.07
67.44 67.06 66.74 66.27 64.18 63.67 62.97 60.55 60.39 59.70 58.45 58.35 57.52 56.64 57.35 56.91 56.95 55.83 53.30 54.34 53.28 52.59 52.22 52.11 51.76 52.45 51.74 51.25 54.85 55.07 53.79 55.24 55.74 56.05 56.46 57.93 59.81 57.79 56.70 56.97 56.30 58.66 61.16
65.91 65.15 64.89 64.09 64.03 63.30 60.61 59.66 57.63 57.32 56.79 56.39 56.56 56.97 55.73 56.55 55.24 54.13 52.22 52.41 53.10 51.65 51.76 52.15 52.14 49.61 52.11 50.10 48.48 48.45 53.91 56.47 57.16 55.17 54.14 53.90 54.26 57.48 56.66 57.65 57.24 56.62 57.60
64.88 64.06 63.89 64.09 63.44 62.42 60.33 59.79 58.63 57.57 56.94 56.59 56.06 55.35 55.36 54.99 54.55 54.34 53.71 52.94 52.92 51.49 50.46 50.51 50.15 49.79 48.57 50.32 45.55 45.90 45.17 51.64 48.15 54.08 54.99 53.58 52.01 52.63 53.44 55.39 56.70 57.38 57.15
63.72 63.50 63.80 63.56 62.87 62.54 61.65 58.70 56.93 56.54 56.06 55.27 54.12 53.16 53.29 55.24 55.47 54.05 53.36 52.76 50.70 51.02 50.87 49.79 50.00 49.02 45.59 46.18 46.22 43.78 42.10 40.40 43.89 49.94 53.32 51.71 51.95 51.32 51.50 52.72 52.95 52.96 54.93
63.60 64.39 63.50 63.65 62.99 62.36 59.22 56.32 54.22 52.94 52.91 54.30 54.36 52.32 52.68 53.75 54.26 54.96 53.82 52.89 50.85 50.41 50.30 49.98 50.87 48.68 45.63 44.81 44.47 46.98 45.68 43.09 39.37 39.42 44.08 48.09 51.02 50.73 47.18 46.16 47.68 51.40 50.97
64.51 63.61 63.85 63.29 62.13 61.28 58.21 57.42 54.93 55.35 55.08 54.92 53.77 51.73 51.66 51.74 53.18 54.79 53.46 53.09 51.99 51.85 49.50 50.64 48.98 47.27 47.12 46.30 45.92 44.74 43.56 42.95 42.64 40.99 38.67 41.89 43.69 44.99 45.50 44.79 46.29 46.91 49.83
63.87 63.17 63.34 62.46 60.54 59.48 59.68 58.50 56.67 54.89 54.26 53.81 52.05 50.77 50.35 50.68 51.05 52.65 53.94 51.82 51.46 50.96 50.96 50.11 49.43 47.03 47.11 47.28 46.54 45.86 43.78 41.40 41.21 40.85 39.15 39.42 39.66 43.26 44.17 45.48 46.68 47.85 49.19

GFSSE_sfc_wetblb_285.txt.gz
Wetbulb
71.68 73.54 75.74 75.09 74.88 74.67 74.47 74.40 74.13 73.88 73.81 73.56 73.06 72.63 72.51 72.84 73.56 73.89 74.16 74.21 74.55 74.35 74.53 74.71 74.43 74.13 73.87 73.75 73.74 73.68 73.68 73.59 73.61 73.39 72.93 72.82 72.56 72.81 71.75 72.42 75.19 73.94 75.29
72.58 73.59 75.79 75.16 74.75 74.62 74.32 73.98 73.84 73.84 73.44 72.60 72.40 72.86 73.64 73.89 73.99 74.16 74.24 74.20 73.74 73.78 73.67 73.35 73.31 73.51 73.51 73.40 73.34 73.26 73.29 73.29 73.29 73.45 73.61 74.00 73.43 72.89 73.14 73.08 74.73 73.77 74.86
72.46 73.54 74.37 75.54 74.73 74.43 74.18 73.91 73.69 73.04 72.33 72.51 73.32 73.79 73.99 74.19 74.97 74.19 73.79 73.58 73.22 73.53 73.04 72.51 72.39 72.33 72.32 72.46 72.74 73.24 73.09 72.92 73.07 73.60 73.20 70.39 70.92 73.11 72.86 73.38 74.60 74.08 74.76
72.76 72.61 73.43 75.41 74.71 74.08 73.86 73.69 72.82 72.41 72.94 73.79 74.54 74.84 74.59 74.04 73.52 72.97 72.75 72.50 72.49 72.26 72.06 71.96 71.87 71.52 71.42 71.29 71.31 71.24 71.51 71.78 71.99 72.05 67.18 68.23 68.88 71.54 73.98 75.23 74.80 73.49 73.90
72.33 72.82 73.20 74.76 74.31 74.00 73.74 72.86 72.69 73.42 74.32 74.39 73.99 73.45 73.17 72.50 72.01 71.44 71.09 70.94 70.91 71.02 70.77 70.00 69.07 68.67 68.77 69.08 69.51 70.17 70.69 70.91 71.53 68.58 64.76 64.56 65.27 69.83 72.86 76.37 75.27 74.84 74.06
71.88 72.10 74.31 74.57 74.51 73.36 72.51 73.21 73.94 74.49 74.07 73.49 72.90 72.53 71.66 71.17 69.33 68.54 67.99 67.64 67.03 66.98 66.84 67.19 67.32 67.53 67.82 67.93 68.28 68.59 68.90 69.47 70.37 64.69 64.56 64.51 65.20 70.16 74.20 75.93 75.05 74.87 74.52
70.64 71.93 72.81 74.39 73.76 72.87 74.14 74.66 74.22 73.59 73.05 72.11 71.38 70.88 69.70 69.20 67.19 66.85 66.82 66.49 66.76 66.90 67.25 67.33 67.61 67.60 67.66 67.73 67.92 69.95 70.39 69.55 66.01 64.26 64.29 64.02 63.56 72.06 75.56 74.87 73.83 73.68 73.58
71.13 71.83 72.10 73.42 73.31 74.82 74.19 73.52 73.07 72.23 71.76 70.95 70.00 69.47 68.79 67.86 66.63 66.01 66.23 66.71 66.87 67.01 67.25 67.62 67.53 67.30 68.08 68.76 67.75 68.45 69.74 68.83 64.60 62.72 62.57 62.35 65.94 74.16 74.32 73.09 72.92 72.70 72.64
71.78 70.47 70.81 71.74 73.18 73.94 73.39 72.65 71.59 70.75 69.97 69.59 69.22 68.84 68.23 67.87 66.93 66.39 66.07 66.23 67.22 68.41 67.51 68.62 67.46 67.32 66.92 66.91 68.05 67.70 67.34 66.86 57.29 61.06 66.03 63.64 72.12 72.94 71.00 69.43 69.76 71.53 72.62
69.35 69.58 69.49 69.48 69.91 69.68 69.43 71.14 69.76 68.95 68.64 68.34 67.52 67.83 68.24 66.37 67.21 65.90 66.67 67.71 66.87 66.74 66.44 66.76 66.34 66.43 66.44 67.04 67.30 67.22 66.54 65.72 57.74 64.70 67.01 69.22 71.95 71.05 70.66 70.86 70.81 71.30 71.68
69.00 68.29 67.70 67.50 67.50 67.17 66.74 67.14 68.63 67.84 67.69 66.88 65.58 66.96 61.56 58.49 59.64 61.94 67.53 66.37 65.89 65.81 65.73 65.61 66.22 66.05 64.83 66.02 66.76 66.37 65.11 60.09 62.98 65.44 65.99 69.52 70.45 69.85 69.75 70.19 70.55 70.64 71.27
67.21 68.40 66.84 66.65 66.46 66.04 67.45 64.61 63.31 63.65 59.75 59.54 59.07 58.28 57.17 58.11 61.08 61.55 63.66 64.15 64.47 63.98 64.18 63.98 65.07 64.25 61.67 57.87 59.56 62.85 60.20 60.74 62.12 63.92 66.08 69.48 69.65 69.65 69.27 69.16 68.93 69.98 70.41
66.88 67.98 67.61 66.39 66.04 64.86 64.39 63.37 62.66 59.36 58.56 58.12 58.04 57.74 56.78 57.81 57.92 56.85 55.88 55.38 54.43 59.24 55.16 56.87 56.98 56.88 56.99 57.86 59.07 59.28 60.34 60.96 61.38 63.56 66.34 68.45 69.09 69.48 69.49 69.52 69.01 68.91 69.75
66.27 67.36 67.70 67.08 65.77 63.88 63.41 62.53 60.90 58.76 58.15 57.19 57.24 57.47 56.58 57.08 56.59 54.83 53.93 53.04 53.20 54.18 54.63 54.71 55.16 55.65 56.64 58.11 58.23 58.59 59.56 60.96 61.35 61.87 64.17 67.51 67.31 67.70 68.29 69.04 69.13 68.82 68.28
65.56 66.83 67.29 67.54 65.72 64.12 63.22 63.00 59.82 59.16 58.57 57.63 57.02 57.27 57.10 56.73 54.88 53.22 52.09 52.13 53.10 54.07 53.91 53.76 54.24 54.10 55.06 57.23 58.23 58.91 58.65 58.54 59.18 60.39 60.97 66.81 66.66 67.10 67.14 67.82 67.72 67.94 67.78
65.63 65.99 67.09 67.22 65.95 64.98 63.32 61.88 59.19 60.23 59.99 58.51 57.53 57.39 56.67 55.67 52.95 51.44 51.90 52.63 52.86 53.29 53.17 53.52 53.33 53.25 52.93 55.50 57.41 58.46 58.44 58.09 57.40 58.22 59.33 60.90 65.74 65.65 65.92 66.16 66.25 66.39 66.27
65.99 66.11 66.69 67.06 65.85 64.80 62.86 59.82 59.94 59.46 58.81 57.10 57.81 57.61 56.97 54.81 52.23 51.18 51.69 51.69 51.71 52.07 52.15 52.73 52.86 52.34 52.80 54.12 55.46 56.83 57.89 57.89 57.43 57.47 57.94 58.25 58.79 63.72 64.86 65.21 65.38 64.99 65.13
66.03 66.36 67.55 67.88 64.20 62.25 60.34 60.10 59.95 58.82 56.95 56.81 56.52 56.46 57.31 55.82 52.47 51.54 50.93 50.56 50.78 50.34 50.82 50.60 51.34 49.82 49.42 51.42 52.27 54.54 55.61 56.70 56.96 56.84 56.58 56.83 56.77 57.61 61.34 63.48 63.62 63.85 64.10
66.54 67.55 67.35 66.03 62.72 61.63 60.83 59.98 59.30 57.60 56.56 56.04 55.74 56.01 56.08 55.48 53.56 51.71 50.46 49.64 49.51 49.14 49.29 49.63 49.14 49.20 46.98 47.99 52.01 52.48 54.19 54.69 55.45 56.27 54.82 54.68 55.61 55.91 56.31 62.26 62.39 62.41 62.82
67.52 68.03 66.92 65.17 63.39 62.67 59.17 58.08 57.45 57.39 55.66 55.36 55.20 54.39 54.16 54.22 53.16 51.08 49.86 49.44 49.06 48.05 48.11 48.84 48.05 48.56 46.88 46.06 49.63 52.42 53.08 55.55 53.88 53.99 54.57 55.25 54.77 54.45 54.65 54.99 55.05 57.64 60.68
67.82 67.25 66.02 64.39 63.31 59.89 57.91 56.35 55.86 54.76 53.83 53.58 53.08 54.77 53.44 53.25 51.79 50.34 49.40 48.80 48.08 46.99 46.63 47.86 47.83 44.56 44.42 43.46 44.76 48.79 52.77 52.59 51.46 51.98 52.38 53.29 54.08 54.37 54.71 54.41 53.70 53.44 54.53
66.97 66.47 65.47 64.21 62.68 59.84 58.98 57.18 55.10 55.19 53.62 53.35 52.53 52.75 52.41 52.48 51.96 51.05 50.08 48.98 47.65 46.51 45.96 45.44 44.33 42.50 42.66 42.52 43.18 43.97 45.91 44.51 45.83 50.37 50.55 50.44 49.24 50.55 53.48 54.21 53.12 53.10 52.77
66.70 65.55 64.29 63.60 63.56 62.09 59.42 57.26 55.33 53.93 52.97 51.42 50.27 50.56 50.98 52.20 51.60 50.46 49.36 48.36 47.46 46.24 45.47 44.71 44.00 43.14 41.91 43.68 42.45 42.68 37.10 36.26 38.90 42.59 43.49 46.61 48.63 48.66 49.36 49.45 53.24 53.12 51.28
64.00 64.10 63.90 60.50 62.73 62.66 60.17 57.78 55.84 53.14 51.67 50.62 49.73 50.07 50.94 52.13 51.69 51.56 49.50 48.22 48.04 47.06 45.45 45.52 46.10 43.99 42.81 42.00 42.92 42.99 40.61 39.67 37.76 37.56 41.14 42.19 44.54 45.53 42.94 43.66 49.46 51.82 50.50
64.25 64.18 63.51 60.68 61.18 62.86 60.11 59.26 56.48 54.66 51.68 51.09 49.05 49.60 49.07 49.66 51.15 51.80 50.05 48.62 47.42 47.43 45.23 44.78 44.96 44.53 43.91 43.01 42.22 41.05 39.67 39.48 39.00 37.80 36.25 39.33 41.88 41.92 42.31 42.46 45.93 49.84 48.57
64.80 64.65 64.32 62.23 61.56 61.71 59.07 58.66 56.63 53.45 52.37 50.36 48.01 47.75 47.74 48.19 49.10 50.62 50.91 49.46 47.82 47.51 46.60 44.61 43.72 44.11 43.34 43.26 42.79 42.41 40.17 39.44 39.02 39.44 37.45 37.03 37.23 41.11 42.47 44.25 42.59 45.82 47.38

GFSSE_sfc_wetblb_288.txt.gz
Wetbulb
71.06 73.09 76.14 74.75 74.43 74.27 74.27 74.08 73.91 73.89 73.59 73.00 72.59 72.72 73.26 73.87 74.06 74.21 73.95 73.72 74.02 73.85 73.61 73.53 73.64 73.59 73.62 73.47 73.51 73.38 73.39 73.41 73.53 73.50 73.70 73.67 72.97 72.97 71.78 72.89 73.78 73.98 74.78
72.21 73.26 75.56 74.70 74.26 74.25 74.15 73.78 73.76 73.34 72.61 72.53 73.11 73.79 73.94 74.02 74.57 74.61 73.95 73.12 73.60 73.89 72.71 72.52 72.54 72.18 72.41 72.66 72.78 72.64 73.03 73.34 73.47 73.53 73.69 72.97 73.11 73.10 73.20 72.36 74.52 73.96 74.78
72.33 73.20 73.72 75.16 74.62 74.21 73.88 73.64 73.32 72.39 72.48 73.34 73.69 73.94 74.27 74.54 74.14 73.72 73.32 73.04 72.82 72.55 72.07 71.59 71.84 71.97 71.98 71.91 71.68 71.68 71.76 72.08 72.25 72.52 70.84 69.19 70.19 72.86 73.22 73.49 74.06 74.44 74.71
72.42 72.34 72.99 75.06 74.35 73.93 73.56 73.37 72.44 72.46 73.39 74.02 74.54 74.49 73.89 73.30 72.82 72.53 72.23 72.10 71.56 71.67 71.18 70.83 70.11 69.79 69.70 69.83 70.19 70.58 70.91 71.30 71.72 71.01 67.27 66.87 67.33 70.37 72.59 74.91 74.57 74.49 74.38
71.63 72.22 73.00 74.61 74.14 73.81 73.26 72.51 72.52 73.57 74.66 74.19 73.12 72.60 72.40 71.93 70.84 70.08 69.62 68.88 68.34 68.05 67.81 68.03 68.24 68.07 68.21 68.40 68.50 68.71 69.10 69.57 70.84 68.61 66.19 65.96 66.63 67.97 71.85 73.50 75.73 75.15 74.25
71.33 71.93 74.39 74.22 74.09 73.44 72.30 73.17 73.72 74.72 74.02 73.25 72.97 71.96 70.91 68.34 67.94 67.73 67.33 67.54 67.62 67.92 68.03 68.27 68.15 67.99 67.97 67.81 68.48 69.61 69.80 69.74 69.27 66.35 65.84 65.50 65.84 67.70 72.27 74.93 75.98 74.50 73.96
70.14 71.62 72.53 74.42 73.57 72.54 73.39 74.27 74.49 73.67 72.95 72.08 71.31 69.83 68.95 67.75 67.19 67.38 67.30 67.41 67.60 67.76 67.89 68.19 67.70 67.33 67.25 67.41 67.54 68.34 70.31 68.40 65.10 64.53 64.74 64.93 65.01 70.62 73.75 75.19 74.54 73.92 74.03
70.66 71.27 72.27 73.89 72.99 73.94 74.51 74.09 73.37 72.60 71.83 70.66 70.03 69.12 68.31 67.40 66.90 66.79 66.69 67.44 68.05 67.73 67.43 67.06 66.98 66.85 67.36 68.22 68.11 68.11 68.06 67.79 64.98 66.59 67.70 64.64 70.80 73.25 72.83 71.53 72.77 72.53 72.47
71.07 70.66 70.60 70.41 72.00 74.32 73.72 73.32 72.13 71.24 70.49 69.84 69.18 68.65 68.19 67.85 67.32 66.87 66.66 67.59 67.22 67.01 66.90 66.73 66.73 67.13 67.72 67.99 68.41 68.22 68.77 69.23 65.10 67.39 68.92 70.06 73.22 72.21 71.58 71.18 71.45 71.89 72.35
70.42 69.83 69.10 70.23 70.85 70.83 70.87 72.06 70.64 69.87 69.04 68.34 68.52 68.36 65.94 65.28 67.03 67.50 67.33 67.80 66.47 66.34 66.19 66.84 66.82 66.71 67.55 67.51 67.68 67.77 67.68 67.77 66.01 67.14 67.82 69.51 71.53 71.21 71.15 71.10 70.76 70.94 71.73
69.29 69.26 68.24 68.54 68.63 68.40 67.75 68.02 68.93 67.94 68.19 65.84 67.74 65.73 61.86 61.09 61.15 63.75 66.18 65.72 65.59 65.21 65.85 66.34 66.43 65.91 64.95 66.18 66.76 66.91 65.94 63.75 65.57 66.47 67.74 70.25 70.52 69.96 69.77 69.57 69.93 70.38 70.77
67.18 68.13 67.70 67.09 67.11 66.72 67.51 64.14 63.30 61.87 60.39 60.05 59.34 58.68 58.59 60.23 62.27 61.56 62.69 63.20 63.76 63.31 64.73 65.21 65.10 64.50 62.43 60.85 61.68 63.67 62.67 63.40 64.35 65.45 67.79 69.42 69.82 70.08 70.12 70.23 69.69 69.85 70.37
66.89 67.70 67.80 66.03 66.26 65.38 64.47 63.00 61.43 59.28 58.91 58.87 59.17 57.88 58.63 58.60 57.44 56.68 55.80 55.42 56.73 60.00 57.32 58.52 58.90 59.10 60.07 60.31 61.13 61.72 62.83 63.19 62.94 63.93 67.34 68.03 68.30 69.07 69.40 69.38 69.62 69.50 69.58
66.30 66.92 68.05 66.24 65.63 64.44 63.94 62.60 60.24 58.87 58.51 57.86 58.49 58.07 58.08 57.14 55.65 55.25 54.29 55.08 55.98 56.15 56.55 57.08 57.15 58.40 59.66 60.25 60.05 60.16 61.00 61.87 62.26 63.00 65.39 67.53 67.63 68.01 68.50 68.37 68.04 68.33 68.11
65.28 66.63 67.37 66.71 65.66 64.16 63.51 62.43 59.40 59.23 58.36 58.15 58.20 58.52 58.13 56.07 54.34 54.17 54.52 55.12 55.44 55.70 55.76 56.08 56.25 57.27 59.00 59.82 59.77 59.64 59.58 60.20 60.81 61.54 62.44 66.47 66.59 66.88 67.09 67.29 67.24 67.48 66.77
65.11 66.03 67.05 66.70 65.98 64.15 63.18 61.89 59.04 59.96 58.88 58.19 58.47 58.34 57.49 54.87 53.42 54.41 54.18 53.95 54.35 54.86 55.14 55.60 55.79 55.86 57.42 59.36 59.25 59.34 58.80 58.86 59.81 60.07 60.35 61.62 65.09 65.63 65.96 66.01 65.96 66.08 65.96
65.17 65.84 66.14 66.36 65.70 64.26 63.28 61.40 59.96 59.61 58.60 57.60 58.19 57.82 56.20 54.11 54.10 53.70 53.32 52.86 53.15 53.80 54.67 55.56 54.32 54.81 56.47 57.96 58.20 58.53 58.63 58.76 58.97 59.20 59.53 59.79 60.63 63.86 64.23 64.51 64.81 64.98 64.72
64.91 64.74 65.87 66.74 65.58 64.70 62.68 61.00 59.97 59.23 57.77 57.41 57.10 57.24 56.42 54.86 54.54 53.42 52.37 52.04 52.24 52.82 53.00 53.57 53.01 51.56 53.00 55.55 56.57 57.34 57.82 58.14 57.93 57.84 58.34 59.17 59.66 59.69 61.83 63.47 63.67 63.96 63.93
65.20 64.49 65.67 66.40 64.65 63.74 61.25 60.49 59.81 58.35 57.61 56.88 56.74 56.67 56.62 55.26 54.59 52.48 51.84 51.48 51.65 51.42 51.86 53.05 51.65 51.22 50.34 51.72 55.57 56.52 57.09 57.23 57.02 56.54 56.67 57.11 57.90 58.05 58.36 61.34 62.11 61.28 60.62
65.48 65.47 66.56 64.82 62.43 61.21 60.64 59.76 59.05 57.64 56.76 56.60 55.98 55.25 54.93 54.54 53.57 51.69 51.25 51.27 50.62 50.28 50.78 51.50 50.10 48.86 48.67 49.29 54.40 55.31 56.28 56.78 56.62 56.45 56.35 56.82 57.13 57.46 57.75 57.66 57.84 57.60 58.12
66.03 66.04 65.12 61.94 61.33 60.22 58.94 58.45 57.72 55.79 55.09 54.99 55.24 55.03 54.30 53.34 53.05 51.25 50.66 50.54 49.86 49.10 48.84 50.70 49.21 48.06 46.75 46.67 52.78 53.77 53.21 54.52 54.83 54.12 54.76 55.69 56.28 57.14 57.55 57.00 56.67 56.39 55.66
65.70 65.43 63.12 61.92 61.26 61.61 60.53 59.78 59.37 59.01 57.69 54.30 54.18 53.46 53.83 53.29 52.34 51.81 51.05 50.42 49.79 48.70 48.47 48.15 48.07 46.52 46.87 45.53 48.91 50.86 49.57 47.80 49.85 50.78 51.96 53.50 53.30 54.18 55.74 56.81 56.47 56.42 56.18
65.81 63.59 63.32 63.36 62.22 60.98 59.97 58.71 58.03 59.31 56.64 53.45 52.03 51.96 52.83 53.46 53.44 52.44 51.53 50.57 49.65 48.92 47.76 47.63 47.83 47.52 45.83 46.18 45.66 48.25 42.90 42.94 43.85 46.74 47.80 48.39 51.32 52.61 53.24 53.02 56.03 56.39 55.83
63.43 62.38 63.18 63.61 62.48 61.47 60.37 58.95 56.86 57.07 55.96 52.77 52.40 51.82 52.15 52.88 52.52 51.92 51.52 50.94 50.24 48.58 48.57 48.72 48.00 47.21 46.74 46.00 46.32 44.95 44.78 45.32 43.36 43.64 46.35 46.76 47.28 49.77 49.04 48.37 51.75 55.55 55.44
64.58 62.76 63.00 63.15 62.21 62.70 60.40 58.60 56.86 56.52 56.77 52.38 51.69 51.33 52.12 52.08 52.65 52.20 51.25 50.80 50.49 48.40 47.84 48.63 48.22 47.77 46.71 46.56 45.95 44.87 44.36 44.07 44.07 43.38 42.78 44.81 47.44 47.70 48.57 48.73 48.37 52.15 54.20
64.99 64.69 63.77 61.62 61.02 61.44 59.97 58.49 57.33 56.82 54.85 51.52 50.38 50.31 50.46 50.52 51.22 52.29 51.92 51.05 50.20 49.69 48.22 47.59 47.87 47.90 47.20 46.87 46.47 45.99 45.14 45.66 44.63 44.67 43.68 43.13 43.34 46.45 47.36 49.69 49.82 49.94 51.83

GFSSE_sfc_wetblb_291.txt.gz
Wetbulb
71.80 74.23 75.72 75.23 74.21 74.61 74.31 74.06 74.07 73.87 73.34 72.88 72.82 73.49 74.03 74.23 74.35 74.06 73.71 73.94 74.60 73.77 73.44 73.31 72.96 73.12 73.43 73.10 73.07 72.86 73.39 73.62 73.59 73.72 73.86 74.08 73.90 73.38 72.61 72.49 73.25 73.86 74.56
73.46 74.30 75.01 74.49 74.21 74.48 74.14 73.99 73.80 72.97 72.88 73.42 74.08 74.10 74.33 75.01 74.70 74.28 73.77 73.84 73.51 73.17 72.90 72.81 72.71 72.55 72.09 71.78 71.91 72.12 72.29 72.47 72.64 73.17 72.05 71.55 71.51 72.78 73.14 73.30 73.35 74.75 74.16
73.55 74.43 73.57 74.22 74.60 74.26 73.97 73.60 72.82 72.79 73.70 74.13 74.25 74.91 74.31 73.70 73.15 73.18 72.95 72.23 72.09 72.11 71.90 71.19 70.92 70.77 70.81 71.20 71.13 71.22 71.35 71.57 71.98 71.96 70.37 70.85 70.64 71.05 73.52 73.19 73.45 74.88 74.44
73.91 74.50 74.06 75.15 74.56 74.14 73.55 72.90 72.62 73.66 74.36 74.73 74.50 74.01 73.13 72.71 72.06 71.59 71.39 71.13 70.29 69.45 68.89 68.99 68.72 68.75 68.70 68.91 69.07 69.17 69.45 70.35 71.51 70.72 69.73 69.37 69.98 70.12 71.04 72.88 74.32 74.69 74.09
73.57 74.32 74.57 75.03 74.40 73.79 73.02 72.62 73.36 74.53 74.61 73.53 72.90 72.35 70.84 69.18 68.52 68.23 68.13 68.13 68.48 68.64 68.81 68.56 68.56 68.40 68.21 68.54 69.10 70.25 69.53 69.88 70.12 68.36 67.34 67.88 69.47 71.29 70.15 71.53 74.16 74.56 74.24
73.02 73.81 74.78 74.78 74.08 73.44 72.60 73.53 74.43 74.51 73.96 73.41 72.49 70.56 68.45 68.21 68.26 68.89 68.10 68.16 68.29 68.27 68.43 68.19 67.73 67.73 67.62 67.54 67.86 68.64 70.40 68.93 67.54 67.52 68.57 69.75 69.31 69.59 72.74 74.57 74.45 74.93 74.24
72.18 73.73 74.28 74.23 73.78 72.60 73.49 74.43 74.51 73.53 72.72 71.99 70.22 69.11 68.18 67.73 67.65 67.70 68.02 68.26 68.00 67.99 67.75 67.57 67.35 67.00 67.91 67.86 67.92 68.75 68.92 69.80 68.28 69.22 69.71 70.31 73.41 74.06 73.78 74.17 74.83 73.43 72.94
72.00 73.36 73.76 74.26 73.07 73.73 74.58 74.36 73.61 72.34 71.42 70.60 69.58 68.79 68.03 67.82 67.53 67.05 68.05 68.21 67.62 67.46 67.30 66.79 67.24 68.17 68.43 68.73 68.49 68.99 69.46 69.36 67.70 69.66 71.29 72.67 72.78 73.09 72.21 71.98 72.42 72.24 72.08
72.45 72.85 73.47 73.09 73.29 74.50 74.25 73.36 72.34 71.38 70.42 69.88 69.31 69.00 67.96 67.79 67.23 67.66 67.66 67.19 67.06 66.78 66.95 67.54 67.61 67.94 67.99 68.26 68.56 68.64 68.83 68.91 67.29 69.21 70.25 71.73 72.44 72.42 72.13 72.02 71.55 71.50 71.56
71.99 72.41 72.68 71.90 72.73 73.40 73.61 72.27 71.22 70.27 69.75 69.39 69.09 67.13 66.05 68.07 68.02 66.98 67.92 66.95 66.32 66.50 67.10 67.04 67.00 67.22 67.23 67.54 68.01 67.90 67.64 67.03 67.24 68.78 69.56 70.58 71.60 70.58 70.52 70.58 70.76 70.89 70.74
70.41 71.98 72.25 71.31 72.96 72.89 72.34 70.76 69.98 68.75 68.43 68.35 68.36 65.84 65.54 66.60 66.78 65.93 65.92 65.42 65.36 66.46 66.75 66.52 66.17 65.54 64.98 66.17 67.00 67.21 66.74 66.67 67.00 67.65 69.02 69.72 70.61 70.38 70.52 70.26 70.32 70.38 70.87
68.25 70.15 71.52 72.14 72.22 72.08 69.93 69.28 68.52 68.18 66.54 67.99 66.11 65.75 65.66 66.41 65.23 64.01 64.14 64.41 64.65 65.83 65.91 65.87 65.25 64.39 64.30 64.76 65.78 66.20 66.18 66.54 66.89 66.90 68.32 68.94 69.23 69.68 70.10 70.16 69.90 70.13 70.00
68.92 69.05 69.96 72.02 72.36 70.88 68.60 67.64 66.89 65.80 65.44 65.45 64.87 65.24 65.13 63.72 63.46 62.59 62.68 63.16 63.84 63.43 63.84 63.97 63.82 63.45 63.99 64.33 65.60 65.90 66.17 66.17 66.48 67.12 68.07 68.34 68.66 68.95 68.91 68.81 68.93 68.86 68.71
68.52 69.38 69.73 71.16 71.33 70.42 68.75 67.32 66.41 64.86 64.74 64.69 64.35 64.77 62.76 62.83 62.46 62.17 62.13 62.62 63.28 63.55 63.38 63.73 63.75 64.24 63.55 63.71 64.14 64.55 65.05 65.78 66.22 66.82 67.15 67.47 67.49 67.98 68.07 67.99 68.06 68.15 67.95
68.90 69.77 69.61 70.47 70.83 69.85 68.89 67.80 65.72 64.76 64.16 64.39 64.17 64.71 63.76 62.32 61.99 62.12 62.06 62.31 62.50 63.13 62.86 62.87 63.58 63.49 62.76 62.18 62.30 62.44 62.73 63.61 63.95 64.64 65.92 66.58 66.58 66.86 67.13 67.25 67.21 67.04 66.63
69.53 69.26 69.72 70.27 70.69 69.71 68.68 67.89 65.17 64.79 64.20 63.96 63.98 64.19 63.03 61.90 62.06 61.56 61.43 61.30 61.35 61.92 61.83 62.29 63.34 63.33 62.67 61.80 61.68 62.17 62.34 62.35 62.55 62.76 63.49 64.87 64.96 65.24 65.58 65.91 66.14 65.95 65.83
69.67 69.62 69.74 70.04 70.37 69.59 68.84 67.72 65.20 64.64 63.57 63.29 63.40 63.01 61.70 62.23 62.19 61.48 60.56 60.30 60.58 61.18 61.75 61.63 62.79 63.71 62.75 62.17 61.65 61.51 61.63 62.19 61.47 62.06 62.32 62.69 63.50 63.78 64.39 64.68 64.90 64.64 64.34
69.72 68.98 69.69 69.45 69.43 69.61 68.85 67.60 65.33 64.44 64.65 64.18 63.79 62.09 61.25 61.62 61.49 60.80 59.16 58.96 59.97 61.07 61.38 60.06 60.81 61.59 62.32 62.19 61.48 61.25 60.84 60.84 60.62 61.20 61.53 61.06 60.96 61.63 62.91 63.04 61.86 61.31 61.07
69.79 69.29 69.21 69.77 68.99 69.24 68.19 67.32 65.01 64.32 64.24 63.87 63.71 61.88 60.86 60.41 59.97 59.49 58.60 58.24 60.11 60.19 60.35 59.07 58.28 60.37 60.57 61.50 61.54 61.82 61.18 60.31 59.87 59.85 60.29 59.97 60.23 60.01 60.67 60.32 59.04 59.09 59.19
69.68 69.73 69.58 69.64 69.30 68.38 66.21 63.96 63.06 63.07 62.39 62.66 63.52 62.22 60.87 59.98 59.30 59.16 58.07 57.95 58.99 59.04 59.09 57.89 57.13 56.42 58.16 60.48 60.49 60.85 61.86 60.79 60.94 60.35 59.98 59.69 60.21 59.77 59.46 58.86 57.81 57.51 58.07
69.17 69.33 69.57 68.14 67.04 66.21 63.30 61.44 60.65 59.70 60.74 61.54 62.52 60.82 59.95 59.32 58.73 58.65 57.12 57.36 57.27 57.64 58.65 57.36 56.16 56.04 54.91 58.72 59.69 59.10 59.78 60.70 61.11 61.00 61.66 61.20 59.83 60.28 59.78 59.42 58.19 57.47 57.16
68.68 69.15 67.65 66.11 64.75 62.54 62.18 61.72 61.38 60.69 59.72 60.28 61.16 60.60 59.00 58.86 58.50 58.24 58.00 57.08 57.07 55.84 56.15 56.50 56.72 55.01 54.79 56.93 57.63 58.07 54.08 55.85 58.19 58.28 59.86 59.85 60.27 60.61 59.70 59.46 59.21 59.31 58.41
67.69 67.58 64.44 61.86 62.92 61.11 60.05 60.12 58.77 59.16 57.76 57.89 56.84 57.59 58.63 58.76 58.75 58.97 58.21 57.41 57.03 57.15 55.09 56.72 56.09 55.66 53.22 54.02 55.13 56.18 53.56 51.36 54.53 55.54 55.82 56.63 56.46 58.70 59.50 58.83 59.14 58.99 59.35
65.26 65.21 64.79 65.01 62.62 63.00 60.54 60.29 58.70 57.02 56.36 57.65 57.96 57.02 57.87 58.90 58.60 58.11 58.10 57.50 56.75 55.74 56.29 55.95 55.61 55.40 56.08 52.33 53.06 53.30 54.28 54.21 51.05 49.41 53.91 55.10 55.72 56.95 57.11 55.29 55.60 58.24 59.46
65.06 65.81 65.49 66.41 65.27 63.66 61.41 61.00 59.71 59.63 59.36 57.62 56.00 56.61 57.34 58.04 58.02 57.10 57.96 57.88 56.69 55.03 55.96 55.93 55.69 55.30 55.19 54.26 53.43 52.70 53.47 52.95 53.76 50.96 49.14 52.05 54.34 55.89 55.83 56.12 55.93 56.06 58.02
68.07 67.88 68.11 67.03 65.74 63.50 61.74 60.54 61.00 60.26 58.44 56.50 56.85 55.74 55.70 56.14 56.71 57.63 57.25 57.72 57.20 55.76 55.46 55.63 56.03 56.16 55.33 55.04 54.14 54.27 53.20 52.29 51.82 51.85 50.71 51.33 49.92 53.02 53.77 54.75 55.37 55.75 57.44